User: anonymous   Login
Location: Walnut Point State Park
(39.6958°N, 88.0345°W)
Time: 09:20:45
(UTC-06:00)
Language:

ATLAS 3B R/B - Orbit

View from above orbital plane
View from above orbital plane
View from above satellite
View from above satellite

Ground track
Ground track

The orbit data is extracted from the following two-line orbital elements,

1 28538U 05004B   18009.17526700 0.00000000  00000-0  00000-0 0    04
2 28538  63.8208 137.2958 0123000 157.4382 202.5618 13.43106376    04
Epoch (UTC): 09 January 2018 04:12:23
Eccentricity: 0.0123000
inclination: 63.8208°
perigee height: 1006 km
apogee height: 1189 km
right ascension of ascending node: 137.2958°
argument of perigee: 157.4382°
revolutions per day: 13.43106376
mean anomaly at epoch: 202.5618°
orbit number at epoch: 0

The dashed part of the orbit path shows where the satellite is in the earth's shadow,  

DLR